Regional Weather Roundup
Issued by NWS

Home | Current Version | Previous Version | Graphics & Text | Print | Product List | Glossary On
Versions: 1 2 3 4 5 6 7 8 9 10 11 12 13 14 15 16 17 18 19 20 21 22 23 24 25 26 27 28 29 30 31 32 33 34 35 36 37 38 39 40 41 42 43 44 45 46 47 48 49 50
000
ASUS43 KMPX 231501
RWRMN
WEATHER ROUNDUP FOR MINNESOTA
NATIONAL WEATHER SERVICE TWIN CITIES/CHANHASSEN MN
1000 AM CDT SAT JUL 23 2016


NOTE: "FAIR" INDICATES FEW OR NO CLOUDS BELOW 12,000 FEET WITH NO
SIGNIFICANT WEATHER AND/OR OBSTRUCTIONS TO VISIBILITY. N/A MEANS
CURRENT SKY AND/OR WEATHER CONDITIONS ARE NOT AVAILABLE.

MNZ060>063-068>070-231600-
   Twin Cities Metro

CITY           SKY/WX    TMP DP  RH WIND       PRES   REMARKS
TWIN CITIES    CLOUDY    81  73  76 E13       29.86F
ST PAUL        CLOUDY    80  71  74 E8        29.87F
CRYSTAL        CLOUDY    81  69  67 E9        29.86S
BLAINE         CLOUDY    81  70  69 E9        29.88F
LAKEVILLE      RAIN      75  75 100 E8        29.85F
EDEN PRAIRIE   CLOUDY    81  75  82 E12       29.85F
LAKEVILLE      RAIN      75  75 100 E8        29.85F
SOUTH ST PAUL  CLOUDY    79  71  74 E5        29.87S
LAKE ELMO      PTSUNNY   79  70  73 SE8       29.91R
$$
MNZ001>005-007-008-013>017-022>024-027-028-231600-
   Northwest Minnesota

CITY           SKY/WX    TMP DP  RH WIND       PRES   REMARKS
HALLOCK        CLOUDY    66  64  94 E3        29.85F
ROSEAU         LGT RAIN  68  63  83 E6        29.89F
WARROAD        LGT RAIN  70  63  78 E6        29.90F
THIEF RVR FALL CLOUDY    71  64  78 E8        29.85F
CROOKSTON      CLOUDY    77  63  61 E8        29.81F
FOSSTON        CLOUDY    72  63  73 SE8       29.85F
DETROIT LAKES  CLOUDY    73  61  64 SE9G17    29.83F
MOORHEAD       CLOUDY    79  68  69 SE6       29.78S
PARK RAPIDS    CLOUDY    75  61  61 E10       29.85F
MAHNOMEN       FAIR      74  62  66 SE10      29.82F HAZE
$$
MNZ006-009>011-018-025>026-231600-
   North Central Minnesota

CITY           SKY/WX    TMP DP  RH WIND       PRES   REMARKS
BAUDETTE       CLOUDY    67  61  81 CALM      29.93R
FLAG ISLAND    CLOUDY    72  61  68 SE9       29.92R
INTL FALLS     CLOUDY    70  60  70 SE6       29.93S
WASKISH        CLOUDY    70  63  78 E6        29.90F
BIG FORK       CLOUDY    70  61  73 CALM      29.94R
LONGVILLE      CLOUDY    73  63  68 E3        29.86F
GRAND RAPIDS   CLOUDY    74  62  66 SE9       29.92F
ORR            CLOUDY    70  59  68 CALM      29.91F
COOK           CLOUDY    73  63  68 SE3       29.94F
WALKER         FAIR      72  61  68 CALM      29.88F
$$
MNZ012-019>021-037-231600-
   Northeast Minnesota

CITY           SKY/WX    TMP DP  RH WIND       PRES   REMARKS
DULUTH         CLOUDY    76  60  57 E14       29.96F
ELY            SUNNY     77  57  50 SE9       29.98F
HIBBING        PTSUNNY   76  60  57 SE13      29.94F
EVELETH        MOSUNNY   78  61  55 E7        29.96F
DULUTH HARBOR  CLOUDY    72  64  78 NE7       29.95F
TWO HARBORS    MOSUNNY   79  64  61 E8        29.95F
SILVER BAY     SUNNY     77  61  57 E5        29.97F
GRAND MARAIS     N/A     67  55  65 E6        30.01S
G MARAIS ARPRT SUNNY     72  55  56 SE7       30.06S
$$
MNZ029>031-032-039>041-046>048-054>057-064-231600-
   West Central Minnesota

CITY           SKY/WX    TMP DP  RH WIND       PRES   REMARKS
FERGUS FALLS   CLOUDY    77  70  78 SE20G26   29.79S
MORRIS         LGT RAIN  70  68  94 SE13      29.79F
ALEXANDRIA     LGT RAIN  72  67  84 S10       29.88R
ELBOW LAKE     FAIR      71  68  90 E13G20    29.81F
WADENA         CLOUDY    73  63  68 SE12      29.83F
GLENWOOD       CLOUDY    70  66  88 S7        29.88F
APPLETON       DRIZZLE   72  66  83 S12G17    29.77F
BENSON         CLOUDY    70  64  83 S9        29.84F
ORTONVILLE     RAIN      70  66  88 N9        29.75F
MADISON        RAIN      70  68  94 SE5       29.78F
WILLMAR        TSTM      70  68  94 W5        29.90F
$$
MNZ033>034-036-042>043-049>051-058-059-231600-
   Central Minnesota

CITY           SKY/WX    TMP DP  RH WIND       PRES   REMARKS
ST CLOUD       CLOUDY    74  70  87 E6        29.84F
SAUK CENTRE    RAIN      71  67  88 SW13G31   29.90R
PAYNESVILLE    CLOUDY    72  68  89 W15G29    29.88R THUNDER
AITKIN         CLOUDY    79  61  53 E6        29.87F
PINE RIVER     CLOUDY    75  64  69 SE8       29.89F
BRAINERD       CLOUDY    76  64  66 SE8G17    29.85F
STAPLES        CLOUDY    73  63  68 SE8       29.85F
LONG PRAIRIE   FAIR      72  66  83 E8        29.87F
LITTLE FALLS   CLOUDY    73  63  68 E6        29.85F
LITCHFIELD     CLOUDY    75  73  94 E5        29.85S
BUFFALO        CLOUDY    78  73  83 E7        29.87S
MAPLE LAKE     CLOUDY    78  75  91 SE7       29.87S
HUTCHINSON     TSTM      77  75  95 E9        29.85R
$$
MNZ037-044-045-052-053-231600-
   East Central Minnesota

CITY           SKY/WX    TMP DP  RH WIND       PRES   REMARKS
PRINCETON      CLOUDY    79  68  69 E7        29.86F
MORA           CLOUDY    75  64  69 E3        29.89F
CAMBRIDGE      CLOUDY    81  66  61 E7        29.85F
RUSH CITY      CLOUDY    79  69  71 E3        29.87F
MOOSE LAKE     CLOUDY    79  61  53 CALM      29.89F
HINCKLEY       FAIR      79  68  69 E7        29.88F
CLOQUET        CLOUDY    77  57  50 E9        29.94F
MCGREGOR       CLOUDY    77  63  61 E9        29.90F
$$
MNZ071>073-080-081-089-090-097-098-231600-
   Southwest Minnesota

CITY           SKY/WX    TMP DP  RH WIND       PRES   REMARKS
MONTEVIDEO     TSTM      70  70 100 SE5       29.83F
GRANITE FALLS  TSTM      70  69  98 SE5       29.86F
CANBY          TSTM      70  68  94 E8        29.80F
MARSHALL       CLOUDY    70  69  97 E6        29.84S
REDWOOD FALLS  LGT RAIN  70  67  90 W14       29.87R
OLIVIA         TSTM      70  66  88 N10       29.86R
PIPESTONE      CLOUDY    75  72  88 N2        29.82F
WINDOM         TSTM      77  73  88 S9        29.85S
WORTHINGTON    LGT RAIN  77  75  93 S7        29.85F
JACKSON        RAIN      77  72  83 S8        29.87F
TRACY          TSTM      74  74  98 NW3       29.85F
SLAYTON        TSTM      73  72  96 CALM      29.87R
$$
MNZ065>067-074>077-082>085-091>093-231600-
   South Central Minnesota

CITY           SKY/WX    TMP DP  RH WIND       PRES   REMARKS
MANKATO        CLOUDY    72  68  88 E13       29.89R THUNDER
NEW ULM        CLOUDY    73  73 100 SE7       29.87R
ST JAMES       CLOUDY    73  70  88 S7        29.86R
FAIRMONT       CLOUDY    75  70  83 SE8       29.87R
GLENCOE        CLOUDY    77  76  95 E7        29.84S
FARIBAULT      TSTM      73  72  94 SW8G47    29.97R VSB 1
OWATONNA       TSTM      73  70  88 S6G24     29.89S
WASECA         TSTM      72  70  94 SW10      29.86F
ALBERT LEA     DRIZZLE   72  72 100 SE6       29.92R
$$
MNZ078>079-086>088-094>096-231600-
   Southeast Minnesota

CITY           SKY/WX    TMP DP  RH WIND       PRES   REMARKS
ROCHESTER      TSTM      74  72  93 SE8       29.94R FOG
RED WING       CLOUDY    79  73  83 E9        29.87S
STANTON        CLOUDY    81  75  83 SE7       29.87F
DODGE CENTER   TSTM      72  66  83 S16       29.97R
WINONA         RAIN      73  72  94 SE8G17    29.93S
AUSTIN         TSTM      73  70  88 CALM      29.95R
PRESTON        CLOUDY    72  68  89 NE8       29.98R
$$
ABBREVIATIONS USED IN REMARKS
   TC - TEMPERATURES IN CELSIUS
  WCI - WIND CHILL INDEX
   HX - HEAT INDEX
  VSB - VISIBILITY
$$




USA.gov is the U.S. government's official web portal to all federal, state and local government web resources and services.